SCP
0 0 0 0 0 0 0 0 0 0 0 0 0 0 0 0 0 0 0 0 0 0 0 0 0 0 0 0 0 0 0 0 0 0 0 0 0 0 0 0 0 0 0 0
0 0 0 0 0 0 0 0 0 0 0 0 0 0 0 0 0 0 0 0 0 0 0 0 0 0 0 0 0 0 0 0 0 0 0 0 0 0 0 0 0 0 0 0
0 0 0 0 0 0 0 0 0 0 0 0 0 0 0 0 0 0 0 0 0 0 0 0 -0 -0 -0 0 0 0 0 0 0 0 0 0 0 0 0 0 0 0 0 0
0 0 0 0 0 0 0 0 0 0 0 0 0 0 0 0 0 0 0 -0 -0 -0 -0 0 0 0 0 0 0 0 0 0 0 0 0 0 0 0 0 0 0 0 0 0
0 0 0 0 0 0 0 0 0 0 0 0 0 0 0 0 0 0 0 0 0 0 0 0 0 0 0 0 0 0 0 0 0 0 0 0 0 0 0 0 0 0 0 0
0 0 0 0 0 0 0 0 0 0 0 0 0 0 0 0 0 0 0 0 0 0 0 0 0 0 0 -0 0 0 0 0 0 0 0 0 0 0 0 0 0 0 0 0
0 0 0 0 0 0 0 0 0 0 0 0 0 0 0 0 0 0 0 0 0 0 0 0 0 0 0 0 0 0 0 0 0 0 0 0 0 0 0 0 0 0 0 0
0 0 0 0 0 0 0 0 0 0 0 0 0 0 0 0 0 0 0 -0 0 -0 -0 0 0 0 0 0 0 0 0 0 0 0 0 0 0 0 0 0 0 0 0 0
0 0 0 0 0 0 0 0 0 0 0 0 0 0 0 0 -0 -0 -0 -0 -0 -0 -0 0 0 0 -0 -0 0 0 0 0 0 0 0 0 0 0 0 0 0 0 0 0
0 0 0 0 0 0 0 0 0 0 0 0 0 0 0 -0 -0 -0 -0 -0 -0 -0 -0 -0 0 0 0 0 0 0 0 0 0 0 0 0 0 0 0 0 0 0 0 0
0 0 0 0 0 0 0 0 0 0 0 0 0 0 -0 -0 -0 -0 -0 -0 -0 -0 -0 -0 -0 -0 0 0 0 0 0 0 0 0 0 0 0 0 0 0 0 0 0 0
0 0 0 0 0 0 0 0 0 0 0 0 0 -0 -0 -0 -0 -0 -0 -0 -0 -0 -0 -0 -0 -0 0 0 0 0 0 0 0 0 0 0 0 0 0 0 -0 -0 -0 0
0 0 0 0 0 0 0 0 0 0 0 -0 -0 -0 -0 -0 -0 -0 -0 -0 -0 -0 0 -0 -0 0 0 0 0 0 0 0 0 0 0 0 0 0 0 0 0 0 -0 -0
0 0 0 0 0 0 0 0 0 0 -0 -0 -0 -0 -0 -0 -0 -0 -0 -0 -0 0 0 0 0 0 0 0 0 0 0 0 0 0 0 0 0 0 0 0 0 0 0 0
0 0 0 0 0 0 0 0 -0 -0 -0 -0 -0 -0 -0 -0 -0 -0 -0 -0 0 0 -0 0 0 0 0 0 0 0 0 0 0 0 0 0 0 0 0 0 0 0 0 0
0 0 0 0 0 0 0 -0 -0 -0 -0 -0 -0 -0 -0 -0 -0 -0 -0 -0 0 -0 0 -0 0 0 0 0 0 0 0 0 0 0 0 0 0 0 0 0 0 0 0 0
0 0 0 0 0 -0 -0 -0 -0 -0 -0 -0 -0 -0 -0 -0 -0 0 0 0 0 0 0 0 0 0 0 0 0 0 0 0 0 0 0 0 0 0 0 0 0 0 0 0
0 0 0 -0 -0 -0 -0 -0 -0 -0 -0 -0 -0 -0 -0 -0 0 0 -0 -0 -0 0 0 0 0 0 0 0 0 0 0 0 0 0 0 0 0 0 0 0 0 0 0 0
0 -0 -0 -0 -0 -0 -0 -0 0 -0 -0 -0 -0 -0 0 0 0 -0 -0 -0 -0 -0 -0 -0 -0 0 0 0 0 0 0 0 0 0 0 0 0 0 0 0 0 -0 0 0
-0 -0 -0 -0 -0 0 0 -0 0 -0 -0 -0 -0 0 0 0 0 -0 -0 -0 -0 -0 -0 -0 0 0 0 0 0 0 0 0 0 0 0 0 0 0 0 0 0 0 0 0
-0 -0 -0 -0 0 -0 -0 0 -0 -0 -0 -0 0 0 0 0 0 -0 -0 -0 -0 -0 -0 -0 0 0 0 0 0 0 0 0 0 0 0 0 0 0 0 0 0 0 0 0
0 -0 -0 0 0 -0 0 0 0 -0 -0 -0 -0 0 0 0 -0 -0 -0 -0 -0 -0 -0 0 0 -0 0 0 0 0 0 0 0 0 0 0 0 0 0 0 0 0 0 0
-0 -0 -0 -0 -0 0 -0 0 0 -0 -0 -0 -0 -0 0 0 0 -0 -0 -0 -0 -0 -0 0 -0 -0 -0 0 0 0 0 0 0 0 0 0 0 0 0 0 0 0 0 0
-0 -0 -0 0 0 0 -0 -0 -0 -0 -0 -0 -0 -0 -0 -0 0 0 0 -0 -0 -0 -0 -0 -0 -0 -0 0 0 0 0 0 0 0 0 0 0 0 0 0 0 0 0 0
-0 -0 -0 -0 0 -0 -0 -0 -0 -0 -0 -0 -0 -0 -0 -0 -0 -0 0 -0 -0 -0 -0 -0 -0 -0 0 0 0 0 0 0 0 0 0 0 0 0 0 0 0 0 0 0
-0 -0 -0 -0 0 -0 -0 -0 -0 -0 -0 -0 -0 -0 -0 -0 -0 -0 -0 0 -0 -0 -0 -0 -0 -0 0 0 0 0 0 0 0 0 0 0 0 0 0 0 0 0 0 0
-0 0 0 0 0 0 -0 -0 -0 -0 -0 -0 -0 -0 -0 -0 -0 -0 -0 -0 -0 -0 -0 -0 -0 -0 -0 0 0 0 0 0 0 0 0 0 0 0 0 0 0 0 0 0
Wind_Speed_500mb
8 8 7 10 20 13 15 14 16 6 27 22 15 17 14 10 11 12 15 17 22 28 33 35 40 46 52 57 61 65 71 75 78 78 78 79 80 80 78 78 76 73 69 71
6 10 11 15 20 17 21 24 27 20 29 10 1 13 12 12 13 19 27 31 34 38 45 52 56 63 71 76 79 79 80 80 83 86 89 92 94 92 88 81 75 75 73 73
7 6 13 14 12 15 10 11 11 12 14 1 4 10 9 3 13 23 31 36 42 48 54 60 67 73 79 79 76 74 75 78 83 87 90 91 91 90 87 88 87 87 83 77
4 4 5 10 9 11 9 2 3 4 1 3 6 16 22 18 14 25 30 44 57 67 69 68 70 72 75 79 79 85 94 100 105 107 105 102 99 98 96 92 92 91 92 87
5 5 12 11 1 1 2 8 9 7 8 14 19 23 22 18 23 36 47 57 63 60 64 69 72 79 80 88 102 109 102 92 88 84 95 89 81 83 91 78 70 73 80 70
5 6 10 8 3 4 2 10 10 6 9 9 14 7 9 19 38 46 53 56 57 59 68 77 77 80 97 109 98 86 79 81 83 94 70 74 82 84 70 57 60 51 62 72
10 9 11 8 6 3 6 10 7 12 20 22 8 17 30 38 47 53 58 59 60 72 76 77 91 101 101 94 80 78 87 85 83 88 81 83 80 73 71 64 79 84 73 68
5 6 13 17 14 5 8 8 17 21 26 29 28 31 39 49 58 59 63 66 73 74 83 96 101 94 91 81 91 88 79 80 88 82 77 69 66 67 67 65 65 58 66 61
13 9 3 18 18 38 24 17 16 23 31 30 27 37 47 57 62 64 63 72 73 86 101 106 97 81 74 97 88 82 78 80 78 75 70 64 63 65 65 66 59 44 51 51
2 7 18 25 31 30 26 25 30 34 26 21 32 40 52 59 61 65 67 74 87 98 100 99 88 82 86 81 76 73 76 76 72 73 70 66 59 55 57 56 52 63 45 45
8 12 18 23 21 23 28 34 40 22 20 27 37 51 50 58 61 62 74 87 95 91 90 92 86 89 79 72 68 68 72 75 76 72 69 66 58 56 52 55 50 51 50 59
11 25 21 29 22 27 34 31 13 17 28 39 43 44 54 54 55 71 85 92 89 86 86 86 88 82 75 66 61 68 72 70 69 68 64 59 59 58 53 50 51 58 55 56
16 37 31 33 29 28 16 9 16 27 34 45 43 42 43 54 68 79 84 83 80 84 83 82 79 76 70 64 62 64 64 63 61 58 56 55 51 48 53 47 42 42 55 66
16 8 7 14 5 2 9 16 25 37 37 35 46 45 49 65 75 79 78 78 79 77 79 74 73 72 67 63 61 57 56 57 55 52 52 51 49 46 42 42 41 41 37 45
9 4 4 3 4 9 18 29 41 41 42 49 44 46 60 65 75 77 76 71 72 73 72 67 69 69 63 57 54 54 55 53 51 52 51 52 50 46 44 42 42 39 35 32
3 8 6 5 9 18 30 38 37 42 48 42 49 55 57 68 71 71 65 68 69 71 65 64 66 65 59 53 53 51 48 47 49 50 48 48 48 44 42 41 41 39 35 35
3 8 5 10 18 26 25 31 37 43 41 47 47 52 65 66 69 66 66 67 59 58 59 61 65 58 55 47 45 45 44 43 39 42 52 41 40 39 42 36 33 34 35 35
10 13 14 18 20 21 29 36 38 44 41 43 47 59 56 70 66 64 62 64 62 62 59 59 55 53 43 40 39 39 39 42 40 41 39 36 40 39 40 27 19 21 22 25
21 21 21 20 21 23 31 38 48 35 38 44 53 55 58 60 56 56 56 62 69 72 68 59 53 47 40 36 33 34 36 38 39 38 38 33 35 36 32 11 2 7 14 21
20 23 17 19 19 25 32 43 46 33 38 52 50 58 65 54 53 56 56 59 65 63 58 54 52 51 42 37 31 29 33 36 39 42 38 34 34 28 42 27 14 9 11 14
16 16 14 17 21 26 32 43 47 36 44 46 52 62 60 55 58 58 64 70 69 60 53 51 51 51 43 37 31 29 30 33 38 41 41 36 29 29 26 29 26 16 11 9
10 12 14 21 21 28 29 42 52 38 45 48 56 66 63 60 65 63 58 62 64 58 56 54 50 43 38 33 35 33 32 33 34 39 45 41 30 29 29 26 23 17 15 12
8 12 13 19 23 29 27 40 55 47 49 51 58 65 65 59 60 67 71 67 64 59 55 51 44 38 40 45 39 37 35 35 35 36 40 39 34 32 30 29 27 22 12 13
10 11 10 16 21 32 35 37 49 53 50 57 58 60 64 66 64 60 60 63 63 63 59 55 50 44 50 48 48 46 43 40 35 33 32 35 32 30 28 30 35 33 28 26
13 11 9 11 21 34 36 37 44 56 58 62 65 64 63 62 62 63 64 67 69 70 69 64 59 57 57 56 55 54 51 45 40 36 33 31 29 29 27 26 25 25 22 17
12 9 13 9 16 27 37 40 49 56 59 62 65 67 67 67 66 66 67 66 69 73 76 76 73 67 64 63 62 59 56 54 48 40 38 34 31 28 25 23 19 17 17 18
11 10 13 10 10 17 31 40 47 55 59 61 63 66 69 70 71 71 72 72 72 72 74 77 78 77 75 73 69 65 63 60 56 53 49 41 37 32 32 28 26 20 14 9
Wind_Direction_500mb
239 241 219 242 272 272 205 215 223 237 263 268 245 258 308 17 97 60 39 10 351 337 331 324 317 315 312 309 309 308 302 297 292 290 288 286 285 286 286 283 277 275 274 269
280 276 287 281 273 262 265 266 260 261 271 227 96 85 72 54 22 3 347 340 334 329 324 321 318 314 311 311 309 307 303 298 298 297 297 296 294 292 290 285 279 271 269 267
275 355 338 304 248 228 231 227 214 228 240 245 326 13 352 338 343 344 335 330 327 323 319 315 313 313 312 309 307 306 304 301 297 295 293 291 290 288 287 287 285 280 276 269
221 34 238 249 283 263 225 179 238 237 157 287 301 306 305 257 331 332 322 321 320 319 316 313 311 311 311 309 308 306 301 297 294 293 293 292 288 283 279 276 274 273 271 271
174 197 299 302 161 114 114 280 204 216 246 275 306 322 299 273 319 318 316 314 312 309 309 312 312 311 307 306 307 307 303 299 296 289 291 293 282 276 285 285 279 269 263 264
156 210 241 245 264 217 116 273 195 215 273 256 320 311 265 275 299 306 310 311 309 310 310 311 312 312 310 310 309 303 300 297 290 291 293 278 278 283 274 267 265 274 268 264
208 244 275 248 288 154 123 249 208 244 276 288 234 242 292 300 306 313 314 313 311 312 314 313 313 315 311 306 300 298 295 299 293 293 291 289 291 281 285 279 271 267 265 263
212 245 251 10 330 217 247 260 265 270 277 283 277 288 300 308 314 316 314 312 315 315 313 315 317 314 312 303 305 308 303 297 297 298 295 289 286 281 276 278 276 266 255 255
183 220 228 311 278 297 283 277 289 296 298 293 290 303 310 314 315 314 312 315 315 316 317 317 317 317 305 309 312 309 303 301 302 302 298 294 288 281 274 270 260 267 260 252
130 260 228 267 280 266 269 275 297 300 298 291 301 309 310 313 314 314 315 316 319 320 318 316 319 313 315 313 314 311 305 305 305 304 301 296 289 280 273 269 265 258 254 236
258 274 258 281 273 256 292 285 293 287 291 306 311 311 313 312 316 316 317 319 320 320 318 316 317 316 320 320 317 312 308 307 308 309 308 303 292 284 273 267 257 248 252 255
241 249 250 260 286 287 297 302 267 296 313 316 318 313 312 315 317 319 319 321 321 320 318 316 318 319 322 322 317 313 311 310 311 309 307 301 296 290 280 273 257 246 229 227
260 281 287 284 289 307 289 265 309 319 321 319 319 318 318 319 322 321 321 324 321 319 320 320 320 321 326 323 318 314 311 312 315 315 312 306 302 293 285 285 273 258 242 225
318 313 281 342 316 29 328 325 324 326 330 328 325 325 322 324 323 326 325 323 321 321 323 323 322 324 327 324 320 318 318 321 322 322 318 312 304 296 288 279 267 267 255 240
256 79 1 282 334 339 335 335 335 336 332 330 331 327 328 328 327 326 326 325 324 325 325 325 325 328 330 328 328 327 327 330 332 333 330 321 313 303 289 279 268 258 257 237
147 101 53 53 4 350 345 342 339 336 332 335 330 331 331 330 329 329 329 332 330 327 331 332 331 333 333 337 333 332 335 343 347 348 346 333 324 311 298 283 270 256 242 237
240 7 25 13 359 348 349 344 339 337 336 332 332 334 333 336 336 334 335 336 334 336 340 338 336 338 346 340 338 340 346 350 356 353 345 340 334 324 315 297 274 257 244 230
55 81 52 15 4 3 354 346 346 339 343 339 338 338 343 341 339 336 335 341 345 347 349 345 344 347 346 347 347 350 349 357 359 357 353 348 337 343 332 309 281 254 235 215
66 45 29 48 18 2 356 354 351 348 348 345 344 351 348 344 341 341 343 352 352 348 350 350 352 352 356 358 354 352 357 359 3 5 7 6 0 2 9 19 9 200 204 204
60 34 66 21 11 11 7 3 2 359 354 352 356 358 356 351 353 355 359 354 354 349 348 354 355 0 4 1 359 358 4 5 9 12 12 24 23 12 27 39 57 99 153 172
54 41 28 31 25 19 13 7 8 6 356 5 4 2 3 3 8 7 6 359 360 358 1 4 5 4 6 6 10 11 8 12 17 16 17 25 39 45 30 36 51 71 105 144
58 51 65 41 38 22 19 14 18 16 9 10 12 9 11 13 12 13 16 8 4 5 11 11 10 10 13 23 27 26 24 24 25 26 28 34 48 48 53 45 34 42 60 83
85 72 68 50 35 27 25 23 22 24 21 19 18 14 17 20 17 15 12 17 18 17 18 18 16 16 31 37 33 35 34 30 36 35 36 44 54 49 51 42 33 40 49 64
109 90 78 54 38 32 32 27 25 28 29 27 25 21 18 19 27 25 25 26 28 28 27 27 26 29 39 38 36 37 37 37 41 44 42 47 57 53 54 54 48 69 73 83
127 96 90 63 46 41 35 28 28 30 31 31 30 28 26 26 28 25 27 30 33 34 34 34 34 35 39 41 41 40 38 39 38 42 45 45 43 45 48 52 55 60 78 74
126 78 60 75 51 39 37 32 32 31 30 32 32 31 30 30 30 31 32 32 35 36 37 37 37 36 40 41 42 44 39 40 41 41 44 43 41 40 40 38 44 49 66 88
128 81 53 60 50 36 33 35 34 33 31 32 33 32 31 31 33 33 33 34 35 36 38 38 38 38 38 41 41 41 43 42 41 39 40 39 41 40 39 42 46 46 69 101
Wind_Speed_850mb
8 8 7 10 20 13 15 14 16 6 27 22 15 17 14 10 11 12 15 17 22 28 33 35 40 46 52 57 61 65 71 75 78 78 78 79 80 80 78 78 76 73 69 71
6 10 11 15 20 17 21 24 27 20 29 10 1 13 12 12 13 19 27 31 34 38 45 52 56 63 71 76 79 79 80 80 83 86 89 92 94 92 88 81 75 75 73 73
7 6 13 14 12 15 10 11 11 12 14 1 4 10 9 3 13 23 31 36 42 48 54 60 67 73 79 79 76 74 75 78 83 87 90 91 91 90 87 88 87 87 83 77
4 4 5 10 9 11 9 2 3 4 1 3 6 16 22 18 14 25 30 44 57 67 69 68 70 72 75 79 79 85 94 100 105 107 105 102 99 98 96 92 92 91 92 87
5 5 12 11 1 1 2 8 9 7 8 14 19 23 22 18 23 36 47 57 63 60 64 69 72 79 80 88 102 109 102 92 88 84 95 89 81 83 91 78 70 73 80 70
5 6 10 8 3 4 2 10 10 6 9 9 14 7 9 19 38 46 53 56 57 59 68 77 77 80 97 109 98 86 79 81 83 94 70 74 82 84 70 57 60 51 62 72
10 9 11 8 6 3 6 10 7 12 20 22 8 17 30 38 47 53 58 59 60 72 76 77 91 101 101 94 80 78 87 85 83 88 81 83 80 73 71 64 79 84 73 68
5 6 13 17 14 5 8 8 17 21 26 29 28 31 39 49 58 59 63 66 73 74 83 96 101 94 91 81 91 88 79 80 88 82 77 69 66 67 67 65 65 58 66 61
13 9 3 18 18 38 24 17 16 23 31 30 27 37 47 57 62 64 63 72 73 86 101 106 97 81 74 97 88 82 78 80 78 75 70 64 63 65 65 66 59 44 51 51
2 7 18 25 31 30 26 25 30 34 26 21 32 40 52 59 61 65 67 74 87 98 100 99 88 82 86 81 76 73 76 76 72 73 70 66 59 55 57 56 52 63 45 45
8 12 18 23 21 23 28 34 40 22 20 27 37 51 50 58 61 62 74 87 95 91 90 92 86 89 79 72 68 68 72 75 76 72 69 66 58 56 52 55 50 51 50 59
11 25 21 29 22 27 34 31 13 17 28 39 43 44 54 54 55 71 85 92 89 86 86 86 88 82 75 66 61 68 72 70 69 68 64 59 59 58 53 50 51 58 55 56
16 37 31 33 29 28 16 9 16 27 34 45 43 42 43 54 68 79 84 83 80 84 83 82 79 76 70 64 62 64 64 63 61 58 56 55 51 48 53 47 42 42 55 66
16 8 7 14 5 2 9 16 25 37 37 35 46 45 49 65 75 79 78 78 79 77 79 74 73 72 67 63 61 57 56 57 55 52 52 51 49 46 42 42 41 41 37 45
9 4 4 3 4 9 18 29 41 41 42 49 44 46 60 65 75 77 76 71 72 73 72 67 69 69 63 57 54 54 55 53 51 52 51 52 50 46 44 42 42 39 35 32
3 8 6 5 9 18 30 38 37 42 48 42 49 55 57 68 71 71 65 68 69 71 65 64 66 65 59 53 53 51 48 47 49 50 48 48 48 44 42 41 41 39 35 35
3 8 5 10 18 26 25 31 37 43 41 47 47 52 65 66 69 66 66 67 59 58 59 61 65 58 55 47 45 45 44 43 39 42 52 41 40 39 42 36 33 34 35 35
10 13 14 18 20 21 29 36 38 44 41 43 47 59 56 70 66 64 62 64 62 62 59 59 55 53 43 40 39 39 39 42 40 41 39 36 40 39 40 27 19 21 22 25
21 21 21 20 21 23 31 38 48 35 38 44 53 55 58 60 56 56 56 62 69 72 68 59 53 47 40 36 33 34 36 38 39 38 38 33 35 36 32 11 2 7 14 21
20 23 17 19 19 25 32 43 46 33 38 52 50 58 65 54 53 56 56 59 65 63 58 54 52 51 42 37 31 29 33 36 39 42 38 34 34 28 42 27 14 9 11 14
16 16 14 17 21 26 32 43 47 36 44 46 52 62 60 55 58 58 64 70 69 60 53 51 51 51 43 37 31 29 30 33 38 41 41 36 29 29 26 29 26 16 11 9
10 12 14 21 21 28 29 42 52 38 45 48 56 66 63 60 65 63 58 62 64 58 56 54 50 43 38 33 35 33 32 33 34 39 45 41 30 29 29 26 23 17 15 12
8 12 13 19 23 29 27 40 55 47 49 51 58 65 65 59 60 67 71 67 64 59 55 51 44 38 40 45 39 37 35 35 35 36 40 39 34 32 30 29 27 22 12 13
10 11 10 16 21 32 35 37 49 53 50 57 58 60 64 66 64 60 60 63 63 63 59 55 50 44 50 48 48 46 43 40 35 33 32 35 32 30 28 30 35 33 28 26
13 11 9 11 21 34 36 37 44 56 58 62 65 64 63 62 62 63 64 67 69 70 69 64 59 57 57 56 55 54 51 45 40 36 33 31 29 29 27 26 25 25 22 17
12 9 13 9 16 27 37 40 49 56 59 62 65 67 67 67 66 66 67 66 69 73 76 76 73 67 64 63 62 59 56 54 48 40 38 34 31 28 25 23 19 17 17 18
11 10 13 10 10 17 31 40 47 55 59 61 63 66 69 70 71 71 72 72 72 72 74 77 78 77 75 73 69 65 63 60 56 53 49 41 37 32 32 28 26 20 14 9
Wind_Direction_850mb
239 241 219 242 272 272 205 215 223 237 263 268 245 258 308 17 97 60 39 10 351 337 331 324 317 315 312 309 309 308 302 297 292 290 288 286 285 286 286 283 277 275 274 269
280 276 287 281 273 262 265 266 260 261 271 227 96 85 72 54 22 3 347 340 334 329 324 321 318 314 311 311 309 307 303 298 298 297 297 296 294 292 290 285 279 271 269 267
275 355 338 304 248 228 231 227 214 228 240 245 326 13 352 338 343 344 335 330 327 323 319 315 313 313 312 309 307 306 304 301 297 295 293 291 290 288 287 287 285 280 276 269
221 34 238 249 283 263 225 179 238 237 157 287 301 306 305 257 331 332 322 321 320 319 316 313 311 311 311 309 308 306 301 297 294 293 293 292 288 283 279 276 274 273 271 271
174 197 299 302 161 114 114 280 204 216 246 275 306 322 299 273 319 318 316 314 312 309 309 312 312 311 307 306 307 307 303 299 296 289 291 293 282 276 285 285 279 269 263 264
156 210 241 245 264 217 116 273 195 215 273 256 320 311 265 275 299 306 310 311 309 310 310 311 312 312 310 310 309 303 300 297 290 291 293 278 278 283 274 267 265 274 268 264
208 244 275 248 288 154 123 249 208 244 276 288 234 242 292 300 306 313 314 313 311 312 314 313 313 315 311 306 300 298 295 299 293 293 291 289 291 281 285 279 271 267 265 263
212 245 251 10 330 217 247 260 265 270 277 283 277 288 300 308 314 316 314 312 315 315 313 315 317 314 312 303 305 308 303 297 297 298 295 289 286 281 276 278 276 266 255 255
183 220 228 311 278 297 283 277 289 296 298 293 290 303 310 314 315 314 312 315 315 316 317 317 317 317 305 309 312 309 303 301 302 302 298 294 288 281 274 270 260 267 260 252
130 260 228 267 280 266 269 275 297 300 298 291 301 309 310 313 314 314 315 316 319 320 318 316 319 313 315 313 314 311 305 305 305 304 301 296 289 280 273 269 265 258 254 236
258 274 258 281 273 256 292 285 293 287 291 306 311 311 313 312 316 316 317 319 320 320 318 316 317 316 320 320 317 312 308 307 308 309 308 303 292 284 273 267 257 248 252 255
241 249 250 260 286 287 297 302 267 296 313 316 318 313 312 315 317 319 319 321 321 320 318 316 318 319 322 322 317 313 311 310 311 309 307 301 296 290 280 273 257 246 229 227
260 281 287 284 289 307 289 265 309 319 321 319 319 318 318 319 322 321 321 324 321 319 320 320 320 321 326 323 318 314 311 312 315 315 312 306 302 293 285 285 273 258 242 225
318 313 281 342 316 29 328 325 324 326 330 328 325 325 322 324 323 326 325 323 321 321 323 323 322 324 327 324 320 318 318 321 322 322 318 312 304 296 288 279 267 267 255 240
256 79 1 282 334 339 335 335 335 336 332 330 331 327 328 328 327 326 326 325 324 325 325 325 325 328 330 328 328 327 327 330 332 333 330 321 313 303 289 279 268 258 257 237
147 101 53 53 4 350 345 342 339 336 332 335 330 331 331 330 329 329 329 332 330 327 331 332 331 333 333 337 333 332 335 343 347 348 346 333 324 311 298 283 270 256 242 237
240 7 25 13 359 348 349 344 339 337 336 332 332 334 333 336 336 334 335 336 334 336 340 338 336 338 346 340 338 340 346 350 356 353 345 340 334 324 315 297 274 257 244 230
55 81 52 15 4 3 354 346 346 339 343 339 338 338 343 341 339 336 335 341 345 347 349 345 344 347 346 347 347 350 349 357 359 357 353 348 337 343 332 309 281 254 235 215
66 45 29 48 18 2 356 354 351 348 348 345 344 351 348 344 341 341 343 352 352 348 350 350 352 352 356 358 354 352 357 359 3 5 7 6 0 2 9 19 9 200 204 204
60 34 66 21 11 11 7 3 2 359 354 352 356 358 356 351 353 355 359 354 354 349 348 354 355 0 4 1 359 358 4 5 9 12 12 24 23 12 27 39 57 99 153 172
54 41 28 31 25 19 13 7 8 6 356 5 4 2 3 3 8 7 6 359 360 358 1 4 5 4 6 6 10 11 8 12 17 16 17 25 39 45 30 36 51 71 105 144
58 51 65 41 38 22 19 14 18 16 9 10 12 9 11 13 12 13 16 8 4 5 11 11 10 10 13 23 27 26 24 24 25 26 28 34 48 48 53 45 34 42 60 83
85 72 68 50 35 27 25 23 22 24 21 19 18 14 17 20 17 15 12 17 18 17 18 18 16 16 31 37 33 35 34 30 36 35 36 44 54 49 51 42 33 40 49 64
109 90 78 54 38 32 32 27 25 28 29 27 25 21 18 19 27 25 25 26 28 28 27 27 26 29 39 38 36 37 37 37 41 44 42 47 57 53 54 54 48 69 73 83
127 96 90 63 46 41 35 28 28 30 31 31 30 28 26 26 28 25 27 30 33 34 34 34 34 35 39 41 41 40 38 39 38 42 45 45 43 45 48 52 55 60 78 74
126 78 60 75 51 39 37 32 32 31 30 32 32 31 30 30 30 31 32 32 35 36 37 37 37 36 40 41 42 44 39 40 41 41 44 43 41 40 40 38 44 49 66 88
128 81 53 60 50 36 33 35 34 33 31 32 33 32 31 31 33 33 33 34 35 36 38 38 38 38 38 41 41 41 43 42 41 39 40 39 41 40 39 42 46 46 69 101